Time,TemperatureF,DewpointF,PressureIn,WindDirection,WindDirectionDegrees,WindSpeedMPH,WindSpeedGustMPH,Humidity,HourlyPrecipIn,Conditions,Clouds,dailyrainin,SoftwareType,DateUTC
2013-09-29 00:05:00,42.7,18.2,30.60,NW,323,0.0,1.0,37,0.00,,,0.00,Wunderground v.1.15,2013-09-29 07:05:00,
2013-09-29 00:11:00,41.8,18.6,30.60,NNW,344,0.0,1.0,39,0.00,,,0.00,Wunderground v.1.15,2013-09-29 07:11:00,
2013-09-29 00:25:00,41.5,18.9,30.61,NNW,327,0.0,0.0,40,0.00,,,0.00,Wunderground v.1.15,2013-09-29 07:25:00,
2013-09-29 00:35:00,41.1,19.2,30.61,NNW,333,0.0,0.0,41,0.00,,,0.00,Wunderground v.1.15,2013-09-29 07:35:00,
2013-09-29 00:45:00,40.9,19.0,30.61,North,352,0.0,0.0,41,0.00,,,0.00,Wunderground v.1.15,2013-09-29 07:45:00,
2013-09-29 00:55:00,40.9,19.0,30.61,NNW,333,0.0,0.0,41,0.00,,,0.00,Wunderground v.1.15,2013-09-29 07:55:00,
2013-09-29 01:01:00,40.8,18.9,30.61,NNW,330,0.0,0.0,41,0.00,,,0.00,Wunderground v.1.15,2013-09-29 08:01:00,
2013-09-29 01:15:00,41.9,19.3,30.61,NNW,330,0.0,0.0,40,0.00,,,0.00,Wunderground v.1.15,2013-09-29 08:15:00,
2013-09-29 01:25:00,43.1,19.8,30.61,NNW,333,0.0,2.0,39,0.00,,,0.00,Wunderground v.1.15,2013-09-29 08:25:00,
2013-09-29 01:35:00,44.2,19.5,30.61,NW,320,1.0,1.0,37,0.00,,,0.00,Wunderground v.1.15,2013-09-29 08:35:00,
2013-09-29 01:45:00,41.8,19.2,30.61,NW,321,1.0,1.0,40,0.00,,,0.00,Wunderground v.1.15,2013-09-29 08:45:00,
2013-09-29 01:51:00,40.7,19.4,30.61,NNW,331,0.0,1.0,42,0.00,,,0.00,Wunderground v.1.15,2013-09-29 08:51:00,
2013-09-29 02:05:00,39.4,19.3,30.61,NW,323,0.0,1.0,44,0.00,,,0.00,Wunderground v.1.15,2013-09-29 09:05:00,
2013-09-29 02:11:00,39.2,19.6,30.61,NW,326,0.0,1.0,45,0.00,,,0.00,Wunderground v.1.15,2013-09-29 09:11:00,
2013-09-29 02:21:00,38.9,19.3,30.61,NW,314,1.0,1.0,45,0.00,,,0.00,Wunderground v.1.15,2013-09-29 09:21:00,
2013-09-29 02:35:00,38.8,19.2,30.61,NW,318,0.0,0.0,45,0.00,,,0.00,Wunderground v.1.15,2013-09-29 09:35:00,
2013-09-29 02:41:00,38.5,19.5,30.61,NW,318,0.0,0.0,46,0.00,,,0.00,Wunderground v.1.15,2013-09-29 09:41:00,
2013-09-29 02:55:00,38.4,19.9,30.61,NW,321,0.0,0.0,47,0.00,,,0.00,Wunderground v.1.15,2013-09-29 09:55:00,
2013-09-29 03:00:00,38.4,19.9,30.61,NW,320,0.0,0.0,47,0.00,,,0.00,Wunderground v.1.15,2013-09-29 10:00:00,
2013-09-29 03:15:00,38.0,19.5,30.61,NW,321,0.0,0.0,47,0.00,,,0.00,Wunderground v.1.15,2013-09-29 10:15:00,
2013-09-29 03:25:00,37.7,19.8,30.61,NW,321,0.0,0.0,48,0.00,,,0.00,Wunderground v.1.15,2013-09-29 10:25:00,
2013-09-29 03:35:00,37.3,19.4,30.61,NW,320,0.0,0.0,48,0.00,,,0.00,Wunderground v.1.15,2013-09-29 10:35:00,
2013-09-29 03:41:00,36.5,19.1,30.61,NW,320,0.0,0.0,49,0.00,,,0.00,Wunderground v.1.15,2013-09-29 10:41:00,
2013-09-29 03:55:00,37.9,19.9,30.61,NW,319,1.0,2.0,48,0.00,,,0.00,Wunderground v.1.15,2013-09-29 10:55:00,
2013-09-29 04:05:00,39.7,20.6,30.61,NNW,339,2.0,3.0,46,0.00,,,0.00,Wunderground v.1.15,2013-09-29 11:05:00,
2013-09-29 04:11:00,40.3,20.6,30.61,North,356,3.0,3.0,45,0.00,,,0.00,Wunderground v.1.15,2013-09-29 11:11:00,
2013-09-29 04:25:00,41.1,20.3,30.61,NW,319,2.0,2.0,43,0.00,,,0.00,Wunderground v.1.15,2013-09-29 11:25:00,
2013-09-29 04:31:00,41.4,20.0,30.61,NW,315,1.0,2.0,42,0.00,,,0.00,Wunderground v.1.15,2013-09-29 11:31:00,
2013-09-29 04:45:00,38.4,19.4,30.61,NW,314,1.0,1.0,46,0.00,,,0.00,Wunderground v.1.15,2013-09-29 11:45:00,
2013-09-29 04:55:00,37.6,19.7,30.62,NW,318,1.0,1.0,48,0.00,,,0.00,Wunderground v.1.15,2013-09-29 11:55:00,
2013-09-29 05:01:00,37.5,19.6,30.62,NW,314,1.0,1.0,48,0.00,,,0.00,Wunderground v.1.15,2013-09-29 12:01:00,
2013-09-29 05:15:00,37.3,19.9,30.62,NW,307,1.0,1.0,49,0.00,,,0.00,Wunderground v.1.15,2013-09-29 12:15:00,
2013-09-29 05:25:00,38.0,20.0,30.62,NW,325,2.0,2.0,48,0.00,,,0.00,Wunderground v.1.15,2013-09-29 12:25:00,
2013-09-29 05:35:00,38.8,20.3,30.62,NW,316,2.0,2.0,47,0.00,,,0.00,Wunderground v.1.15,2013-09-29 12:35:00,
2013-09-29 05:45:00,39.1,20.0,30.63,WNW,303,2.0,2.0,46,0.00,,,0.00,Wunderground v.1.15,2013-09-29 12:45:00,
2013-09-29 05:51:00,38.9,19.9,30.63,North,352,2.0,2.0,46,0.00,,,0.00,Wunderground v.1.15,2013-09-29 12:51:00,
2013-09-29 06:05:00,38.9,20.4,30.63,WNW,302,2.0,3.0,47,0.00,,,0.00,Wunderground v.1.15,2013-09-29 13:05:00,
2013-09-29 06:15:00,39.3,20.7,30.63,NNW,348,3.0,4.0,47,0.00,,,0.00,Wunderground v.1.15,2013-09-29 13:15:00,
2013-09-29 06:21:00,39.6,20.5,30.63,NW,318,3.0,4.0,46,0.00,,,0.00,Wunderground v.1.15,2013-09-29 13:21:00,
2013-09-29 06:35:00,39.2,20.6,30.63,NW,326,2.0,2.0,47,0.00,,,0.00,Wunderground v.1.15,2013-09-29 13:35:00,
2013-09-29 06:45:00,40.3,21.1,30.63,NW,319,3.0,3.0,46,0.00,,,0.00,Wunderground v.1.15,2013-09-29 13:45:00,
2013-09-29 06:55:00,40.8,21.1,30.63,NW,305,2.0,2.0,45,0.00,,,0.00,Wunderground v.1.15,2013-09-29 13:55:00,
2013-09-29 07:05:00,41.5,21.2,30.63,NNW,336,3.0,4.0,44,0.00,,,0.00,Wunderground v.1.15,2013-09-29 14:05:00,
2013-09-29 07:11:00,41.7,21.4,30.63,NW,312,3.0,4.0,44,0.00,,,0.00,Wunderground v.1.15,2013-09-29 14:11:00,
2013-09-29 07:25:00,43.8,22.2,30.64,NW,323,1.0,2.0,42,0.00,,,0.00,Wunderground v.1.15,2013-09-29 14:25:00,
2013-09-29 07:35:00,44.8,22.5,30.64,NW,305,2.0,2.0,41,0.00,,,0.00,Wunderground v.1.15,2013-09-29 14:35:00,
2013-09-29 07:41:00,45.9,22.9,30.64,WNW,288,3.0,3.0,40,0.00,,,0.00,Wunderground v.1.15,2013-09-29 14:41:00,
2013-09-29 07:55:00,48.8,23.0,30.65,North,9,3.0,3.0,36,0.00,,,0.00,Wunderground v.1.15,2013-09-29 14:55:00,
2013-09-29 08:01:00,50.4,23.1,30.65,NNW,339,2.0,2.0,34,0.00,,,0.00,Wunderground v.1.15,2013-09-29 15:01:00,
2013-09-29 08:15:00,53.4,25.0,30.65,NNE,18,2.0,2.0,33,0.00,,,0.00,Wunderground v.1.15,2013-09-29 15:15:00,
2013-09-29 08:25:00,55.3,24.4,30.65,NNW,330,2.0,3.0,30,0.00,,,0.00,Wunderground v.1.15,2013-09-29 15:25:00,
2013-09-29 08:35:00,57.0,24.2,30.65,NNW,328,2.0,2.0,28,0.00,,,0.00,Wunderground v.1.15,2013-09-29 15:35:00,
2013-09-29 08:45:00,58.6,23.8,30.65,NNW,327,2.0,2.0,26,0.00,,,0.00,Wunderground v.1.15,2013-09-29 15:45:00,
2013-09-29 08:55:00,60.3,23.3,30.65,NNE,33,1.0,1.0,24,0.00,,,0.00,Wunderground v.1.15,2013-09-29 15:55:00,
2013-09-29 09:05:00,61.4,23.2,30.65,WNW,288,1.0,1.0,23,0.00,,,0.00,Wunderground v.1.15,2013-09-29 16:05:00,
2013-09-29 09:10:00,62.0,22.7,30.65,WNW,284,1.0,1.0,22,0.00,,,0.00,Wunderground v.1.15,2013-09-29 16:10:00,
2013-09-29 09:21:00,63.8,24.2,30.64,West,274,0.0,1.0,22,0.00,,,0.00,Wunderground v.1.15,2013-09-29 16:21:00,
2013-09-29 09:35:00,66.1,26.1,30.64,SE,133,1.0,2.0,22,0.00,,,0.00,Wunderground v.1.15,2013-09-29 16:35:00,
2013-09-29 09:45:00,67.2,24.7,30.63,SE,133,2.0,2.0,20,0.00,,,0.00,Wunderground v.1.15,2013-09-29 16:45:00,
2013-09-29 09:55:00,68.0,28.8,30.63,WSW,242,3.0,3.0,23,0.00,,,0.00,Wunderground v.1.15,2013-09-29 16:55:00,
2013-09-29 10:05:00,68.8,28.4,30.62,SSW,198,3.0,4.0,22,0.00,,,0.00,Wunderground v.1.15,2013-09-29 17:05:00,
2013-09-29 10:11:00,68.6,28.2,30.62,SSW,212,4.0,4.0,22,0.00,,,0.00,Wunderground v.1.15,2013-09-29 17:11:00,
2013-09-29 10:25:00,70.0,29.4,30.61,SW,218,4.0,4.0,22,0.00,,,0.00,Wunderground v.1.15,2013-09-29 17:25:00,
2013-09-29 10:35:00,70.2,28.4,30.60,ESE,107,4.0,5.0,21,0.00,,,0.00,Wunderground v.1.15,2013-09-29 17:35:00,
2013-09-29 10:41:00,70.9,30.1,30.60,SW,221,4.0,5.0,22,0.00,,,0.00,Wunderground v.1.15,2013-09-29 17:41:00,
2013-09-29 10:55:00,71.3,29.3,30.59,SSW,198,4.0,4.0,21,0.00,,,0.00,Wunderground v.1.15,2013-09-29 17:55:00,
2013-09-29 11:01:00,71.5,29.5,30.59,South,169,4.0,7.0,21,0.00,,,0.00,Wunderground v.1.15,2013-09-29 18:01:00,
2013-09-29 11:15:00,72.9,29.4,30.58,South,190,3.0,5.0,20,0.00,,,0.00,Wunderground v.1.15,2013-09-29 18:15:00,
2013-09-29 11:25:00,72.7,29.3,30.58,SW,219,6.0,6.0,20,0.00,,,0.00,Wunderground v.1.15,2013-09-29 18:25:00,
2013-09-29 11:35:00,73.6,30.0,30.57,SSE,156,5.0,7.0,20,0.00,,,0.00,Wunderground v.1.15,2013-09-29 18:35:00,
2013-09-29 11:45:00,74.1,29.2,30.57,WSW,241,6.0,6.0,19,0.00,,,0.00,Wunderground v.1.15,2013-09-29 18:45:00,
2013-09-29 11:51:00,74.3,29.3,30.56,SSW,201,5.0,6.0,19,0.00,,,0.00,Wunderground v.1.15,2013-09-29 18:51:00,
2013-09-29 12:05:00,74.5,26.8,30.56,South,190,5.0,9.0,17,0.00,,,0.00,Wunderground v.1.15,2013-09-29 19:05:00,
2013-09-29 12:15:00,75.0,25.7,30.55,SSW,211,5.0,5.0,16,0.00,,,0.00,Wunderground v.1.15,2013-09-29 19:15:00,
2013-09-29 12:25:00,74.8,25.6,30.55,SW,225,5.0,6.0,16,0.00,,,0.00,Wunderground v.1.15,2013-09-29 19:25:00,
2013-09-29 12:35:00,75.3,26.0,30.55,SW,224,5.0,5.0,16,0.00,,,0.00,Wunderground v.1.15,2013-09-29 19:35:00,
2013-09-29 12:41:00,75.7,24.7,30.54,South,176,4.0,5.0,15,0.00,,,0.00,Wunderground v.1.15,2013-09-29 19:41:00,
2013-09-29 12:55:00,76.2,23.5,30.53,SW,235,6.0,6.0,14,0.00,,,0.00,Wunderground v.1.15,2013-09-29 19:55:00,
2013-09-29 13:01:00,76.8,24.0,30.53,South,188,5.0,7.0,14,0.00,,,0.00,Wunderground v.1.15,2013-09-29 20:01:00,
2013-09-29 13:15:00,76.5,22.0,30.52,WNW,285,5.0,5.0,13,0.00,,,0.00,Wunderground v.1.15,2013-09-29 20:15:00,
2013-09-29 13:21:00,76.6,20.1,30.52,South,186,4.0,8.0,12,0.00,,,0.00,Wunderground v.1.15,2013-09-29 20:21:00,
2013-09-29 13:35:00,77.8,21.1,30.52,SSE,168,4.0,4.0,12,0.00,,,0.00,Wunderground v.1.15,2013-09-29 20:35:00,
2013-09-29 13:45:00,78.3,21.5,30.52,WSW,239,3.0,4.0,12,0.00,,,0.00,Wunderground v.1.15,2013-09-29 20:45:00,
2013-09-29 13:55:00,77.7,21.0,30.52,South,191,4.0,5.0,12,0.00,,,0.00,Wunderground v.1.15,2013-09-29 20:55:00,
2013-09-29 14:05:00,78.6,21.7,30.51,WNW,285,3.0,7.0,12,0.00,,,0.00,Wunderground v.1.15,2013-09-29 21:05:00,
2013-09-29 14:15:00,78.4,25.2,30.51,WNW,284,4.0,4.0,14,0.00,,,0.00,Wunderground v.1.15,2013-09-29 21:15:00,
2013-09-29 14:25:00,78.9,23.8,30.50,SW,231,3.0,5.0,13,0.00,,,0.00,Wunderground v.1.15,2013-09-29 21:25:00,
2013-09-29 14:35:00,78.7,23.7,30.50,West,277,4.0,5.0,13,0.00,,,0.00,Wunderground v.1.15,2013-09-29 21:35:00,
2013-09-29 14:41:00,79.0,23.9,30.50,WSW,254,4.0,5.0,13,0.00,,,0.00,Wunderground v.1.15,2013-09-29 21:41:00,
2013-09-29 14:55:00,79.1,24.0,30.49,WNW,283,4.0,4.0,13,0.00,,,0.00,Wunderground v.1.15,2013-09-29 21:55:00,
2013-09-29 15:01:00,79.6,24.4,30.49,WSW,243,3.0,5.0,13,0.00,,,0.00,Wunderground v.1.15,2013-09-29 22:01:00,
2013-09-29 15:15:00,79.6,26.2,30.48,WSW,250,4.0,4.0,14,0.00,,,0.00,Wunderground v.1.15,2013-09-29 22:15:00,
2013-09-29 15:25:00,79.9,28.1,30.47,SSW,211,4.0,4.0,15,0.00,,,0.00,Wunderground v.1.15,2013-09-29 22:25:00,
2013-09-29 15:31:00,80.0,26.5,30.47,SE,138,5.0,5.0,14,0.00,,,0.00,Wunderground v.1.15,2013-09-29 22:31:00,
2013-09-29 15:45:00,79.9,26.4,30.47,SW,229,6.0,6.0,14,0.00,,,0.00,Wunderground v.1.15,2013-09-29 22:45:00,
2013-09-29 15:55:00,79.8,24.6,30.47,West,277,5.0,6.0,13,0.00,,,0.00,Wunderground v.1.15,2013-09-29 22:55:00,
2013-09-29 16:05:00,79.7,22.6,30.46,WNW,283,4.0,4.0,12,0.00,,,0.00,Wunderground v.1.15,2013-09-29 23:05:00,
2013-09-29 16:15:00,79.5,24.3,30.46,WSW,237,3.0,3.0,13,0.00,,,0.00,Wunderground v.1.15,2013-09-29 23:15:00,
2013-09-29 16:25:00,79.8,22.6,30.46,SW,222,4.0,4.0,12,0.00,,,0.00,Wunderground v.1.15,2013-09-29 23:25:00,
2013-09-29 16:35:00,79.9,22.7,30.46,SW,235,3.0,5.0,12,0.00,,,0.00,Wunderground v.1.15,2013-09-29 23:35:00,
2013-09-29 16:41:00,79.7,24.5,30.46,WSW,250,3.0,5.0,13,0.00,,,0.00,Wunderground v.1.15,2013-09-29 23:41:00,
2013-09-29 16:55:00,79.5,24.3,30.46,WSW,242,4.0,4.0,13,0.00,,,0.00,Wunderground v.1.15,2013-09-29 23:55:00,
2013-09-29 17:05:00,79.7,24.5,30.46,West,271,2.0,2.0,13,0.00,,,0.00,Wunderground v.1.15,2013-09-30 00:05:00,
2013-09-29 17:11:00,78.6,23.6,30.46,SSW,212,3.0,5.0,13,0.00,,,0.00,Wunderground v.1.15,2013-09-30 00:11:00,
2013-09-29 17:25:00,78.0,23.1,30.46,WNW,283,4.0,4.0,13,0.00,,,0.00,Wunderground v.1.15,2013-09-30 00:25:00,
2013-09-29 17:31:00,77.9,23.1,30.46,NW,323,3.0,4.0,13,0.00,,,0.00,Wunderground v.1.15,2013-09-30 00:31:00,
2013-09-29 17:45:00,76.8,24.0,30.46,SW,233,2.0,2.0,14,0.00,,,0.00,Wunderground v.1.15,2013-09-30 00:45:00,
2013-09-29 17:55:00,75.8,23.2,30.46,SW,231,2.0,3.0,14,0.00,,,0.00,Wunderground v.1.15,2013-09-30 00:55:00,
2013-09-29 18:05:00,74.0,23.4,30.46,WSW,244,3.0,3.0,15,0.00,,,0.00,Wunderground v.1.15,2013-09-30 01:05:00,
2013-09-29 18:15:00,72.0,23.3,30.46,SW,236,1.0,1.0,16,0.00,,,0.00,Wunderground v.1.15,2013-09-30 01:15:00,
2013-09-29 18:21:00,70.6,23.6,30.46,WSW,242,1.0,1.0,17,0.00,,,0.00,Wunderground v.1.15,2013-09-30 01:21:00,
2013-09-29 18:35:00,68.2,23.0,30.46,SW,235,1.0,1.0,18,0.00,,,0.00,Wunderground v.1.15,2013-09-30 01:35:00,
2013-09-29 18:45:00,67.1,23.4,30.47,SW,218,0.0,0.0,19,0.00,,,0.00,Wunderground v.1.15,2013-09-30 01:45:00,
2013-09-29 18:51:00,66.7,23.1,30.47,SW,232,1.0,1.0,19,0.00,,,0.00,Wunderground v.1.15,2013-09-30 01:51:00,
2013-09-29 19:05:00,66.1,22.6,30.47,West,265,1.0,1.0,19,0.00,,,0.00,Wunderground v.1.15,2013-09-30 02:05:00,
2013-09-29 19:11:00,65.9,22.4,30.48,WSW,239,1.0,1.0,19,0.00,,,0.00,Wunderground v.1.15,2013-09-30 02:11:00,
2013-09-29 19:25:00,65.4,22.0,30.48,SSW,198,2.0,2.0,19,0.00,,,0.00,Wunderground v.1.15,2013-09-30 02:25:00,
2013-09-29 19:35:00,65.5,22.1,30.48,WNW,300,2.0,2.0,19,0.00,,,0.00,Wunderground v.1.15,2013-09-30 02:35:00,
2013-09-29 19:41:00,65.1,21.8,30.49,West,268,1.0,2.0,19,0.00,,,0.00,Wunderground v.1.15,2013-09-30 02:41:00,
2013-09-29 19:55:00,63.3,22.7,30.49,SE,136,0.0,0.0,21,0.00,,,0.00,Wunderground v.1.15,2013-09-30 02:55:00,
2013-09-29 20:01:00,62.4,23.0,30.49,SE,131,0.0,0.0,22,0.00,,,0.00,Wunderground v.1.15,2013-09-30 03:01:00,
2013-09-29 20:15:00,61.6,22.3,30.49,SSE,149,1.0,1.0,22,0.00,,,0.00,Wunderground v.1.15,2013-09-30 03:15:00,
2013-09-29 20:25:00,61.1,23.0,30.50,SE,146,1.0,1.0,23,0.00,,,0.00,Wunderground v.1.15,2013-09-30 03:25:00,
2013-09-29 20:31:00,60.6,22.6,30.50,ESE,110,1.0,2.0,23,0.00,,,0.00,Wunderground v.1.15,2013-09-30 03:31:00,
2013-09-29 20:45:00,60.1,22.1,30.50,ESE,103,1.0,2.0,23,0.00,,,0.00,Wunderground v.1.15,2013-09-30 03:45:00,
2013-09-29 20:55:00,59.4,22.6,30.50,ESE,110,1.0,1.0,24,0.00,,,0.00,Wunderground v.1.15,2013-09-30 03:55:00,
2013-09-29 21:05:00,58.8,22.0,30.50,SE,132,1.0,1.0,24,0.00,,,0.00,Wunderground v.1.15,2013-09-30 04:05:00,
2013-09-29 21:15:00,58.1,22.4,30.50,SE,130,1.0,2.0,25,0.00,,,0.00,Wunderground v.1.15,2013-09-30 04:15:00,
2013-09-29 21:21:00,58.0,22.3,30.50,ESE,122,1.0,2.0,25,0.00,,,0.00,Wunderground v.1.15,2013-09-30 04:21:00,
2013-09-29 21:25:00,57.9,22.2,30.50,ESE,119,1.0,1.0,25,0.00,,,0.00,Wunderground v.1.15,2013-09-30 04:25:00,
2013-09-29 21:35:00,57.9,22.2,30.50,SE,127,1.0,2.0,25,0.00,,,0.00,Wunderground v.1.15,2013-09-30 04:35:00,
2013-09-29 21:41:00,57.2,22.6,30.50,SE,124,1.0,2.0,26,0.00,,,0.00,Wunderground v.1.15,2013-09-30 04:41:00,
2013-09-29 21:55:00,55.9,22.4,30.50,SE,129,2.0,2.0,27,0.00,,,0.00,Wunderground v.1.15,2013-09-30 04:55:00,
2013-09-29 22:05:00,55.0,22.4,30.50,ESE,120,1.0,1.0,28,0.00,,,0.00,Wunderground v.1.15,2013-09-30 05:05:00,
2013-09-29 22:11:00,55.1,22.5,30.50,ESE,117,1.0,1.0,28,0.00,,,0.00,Wunderground v.1.15,2013-09-30 05:11:00,
2013-09-29 22:25:00,55.6,23.0,30.50,East,101,1.0,1.0,28,0.00,,,0.00,Wunderground v.1.15,2013-09-30 05:25:00,
2013-09-29 22:31:00,54.8,22.3,30.50,ESE,102,0.0,1.0,28,0.00,,,0.00,Wunderground v.1.15,2013-09-30 05:31:00,
2013-09-29 22:45:00,53.4,22.7,30.50,NNE,23,0.0,0.0,30,0.00,,,0.00,Wunderground v.1.15,2013-09-30 05:45:00,
2013-09-29 22:55:00,54.3,22.7,30.50,NNE,22,0.0,0.0,29,0.00,,,0.00,Wunderground v.1.15,2013-09-30 05:55:00,
2013-09-29 23:05:00,51.1,22.2,30.50,North,11,1.0,1.0,32,0.00,,,0.00,Wunderground v.1.15,2013-09-30 06:05:00,
2013-09-29 23:15:00,51.4,22.5,30.51,NNE,15,1.0,1.0,32,0.00,,,0.00,Wunderground v.1.15,2013-09-30 06:15:00,
2013-09-29 23:21:00,52.8,23.0,30.51,NE,39,1.0,1.0,31,0.00,,,0.00,Wunderground v.1.15,2013-09-30 06:21:00,
2013-09-29 23:35:00,55.5,22.9,30.50,NE,39,0.0,0.0,28,0.00,,,0.00,Wunderground v.1.15,2013-09-30 06:35:00,
2013-09-29 23:45:00,52.5,22.7,30.50,NNE,31,1.0,2.0,31,0.00,,,0.00,Wunderground v.1.15,2013-09-30 06:45:00,
2013-09-29 23:55:00,52.6,22.0,30.51,NW,312,1.0,1.0,30,0.00,,,0.00,Wunderground v.1.15,2013-09-30 06:55:00,